Back to catalog

CZ-2C DEB

AlivePO
NORAD 40265·DEBRIS·🇨🇳 China

Launched Sep 28, 2014 from Jiuquan Satellite Launch Center

Loading…

Next Passes (next 24 hours)

TLE

FreshSource: Space-Track

Epoch: Sep 14, 2026, 02:38 UTC

1 40265U 14059E   26257.11040374  .00001340  00000-0  43878-3 0  9999
2 40265  97.9200 323.0754 0161531 206.9640 152.3086 14.32793365620897

Track CZ-2C DEB in real time with AllMySat

Download on the App Store